[[{"header":{"parameterUnit":"m.s-1","parameterCategory":1,"la1":30.2991,"la2":30.254,"lo1":-89.0895,"lo2":-89.0444,"dy":0.0017,"dx":0.0017,"nx":28,"ny":28,"refTime":"2025-12-01T03:00:00:Z","depth":0,"parameterNumber":2,"parameterNumberName":"U-component_of_WINDS"},"data":[0,0,0,0,0,0,0,0,0,0,0,0,0,0,0,0,0,0,0,0,0,0,0,0,0,0,0,0,0,0,0,0,0,0,0,0,0,0,0,0,0,0,0,0,0,0,0,0,0,0,0,0,0,0,0,0,0,0,-4.6251,-4.6252,0,-4.629,-4.629,-4.6291,-4.613,-4.6125,-4.6121,-4.6116,-4.616,-4.6165,-4.6171,0,0,0,0,0,0,0,0,0,0,0,0,0,-4.6042,-4.6046,-4.6251,-4.6252,-4.6252,-4.629,-4.629,-4.6291,-4.6131,-4.6125,-4.6119,-4.6114,-4.6158,-4.6164,-4.6171,0,0,0,0,0,0,0,0,0,0,0,0,0,-4.6112,-4.6048,-4.6251,-4.6177,-4.617,-4.629,-4.6291,-4.6291,-4.6132,-4.6125,-4.6118,-4.6111,-4.6156,-4.6164,-4.6172,-4.6366,0,0,-4.6198,-4.6201,0,0,0,0,0,0,0,0,-4.6108,-4.612,-4.6187,-4.6182,-4.6175,-4.6198,-4.6232,-4.6316,-4.6134,-4.6147,-4.6116,-4.6108,-4.6178,-4.6184,-4.6207,-4.6368,-4.637,-4.6198,-4.6203,-4.6207,-4.6209,0,0,0,0,0,0,0,-4.6104,-4.6117,-4.6267,-4.6188,-4.6181,-4.6143,-4.6145,-4.6248,-4.6202,-4.6145,-4.6134,-4.614,-4.6174,-4.62,-4.6207,-4.637,-4.6198,-4.6206,-4.6211,-4.6214,-4.6692,-4.6699,0,0,0,0,0,0,-4.6108,-4.6114,-4.6265,-4.6268,-4.6123,-4.6152,-4.6154,-4.6198,-4.6201,-4.6194,-4.6146,-4.6133,-4.6189,-4.6198,-4.6208,-4.6435,-4.6207,-4.6215,-4.622,-4.6685,-4.6694,-4.6702,0,0,0,0,0,0,-4.6104,-4.6123,-4.6264,-4.6188,-4.6203,-4.6163,-4.6213,-4.6202,-4.6228,-4.6201,-4.6193,-4.6181,-4.6184,-4.6196,-4.6328,-4.6434,-4.6219,-4.6226,-4.6675,-4.6687,-4.6698,-4.6891,0,0,0,0,0,0,-4.6099,-4.6123,-4.6195,-4.6191,-4.6208,-4.6382,-4.622,-4.6208,-4.6243,-4.6225,-4.6232,-4.6226,-4.6179,-4.6316,-4.6336,-4.6442,-4.6233,-4.6666,-4.6681,-4.6694,-4.6875,-4.6908,-4.6936,0,0,0,0,0,-4.6092,-4.6249,-4.62,-4.6219,-4.6297,-4.6389,-4.6398,-4.634,-4.6252,-4.6325,-4.6308,-4.6226,-4.642,-4.6331,-4.6352,-4.6462,-4.6659,-4.6676,-4.6693,-4.6862,-4.6902,-4.6935,0,0,0,0,0,0,-4.6268,-4.6247,-4.6192,-4.6352,-4.6373,-4.6361,-4.6451,-4.6385,-4.6432,-4.6414,-4.6341,-4.6344,-4.6488,-4.6488,-4.639,-4.665,-4.6524,-4.6546,-4.6645,-4.6683,-4.6712,-4.6709,-4.624,0,0,0,0,0,-4.6325,-4.64,-4.6378,-4.6521,-4.6535,-4.6492,-4.6529,-4.6483,-4.6502,-4.6511,-4.6503,-4.6526,-4.6592,-4.6637,-4.6696,-4.6874,-4.6874,-4.6961,-4.6991,-4.7016,-4.7037,-4.7131,-4.7169,-4.6759,-4.6759,-4.6758,0,0,-4.6444,-4.6442,-4.6494,-4.6557,-4.6567,-4.6648,-4.65,-4.6592,-4.6651,-4.6525,-4.6648,-4.6644,-4.6665,-4.682,-4.6888,-4.6825,-4.715,-4.7038,-4.7059,-4.7065,-4.7153,-4.7192,-4.7226,-4.6771,-4.6769,-4.6767,0,0,-4.6703,-4.6709,-4.6828,-4.6842,-4.686,-4.6831,-4.686,-4.6858,-4.685,-4.6972,-4.688,-4.695,-4.7065,-4.7083,-4.7108,-4.7374,-4.7301,-4.7396,-4.7555,-4.7648,-4.768,-4.7709,-4.7804,-4.7839,-4.7416,-4.7417,-4.7417,0,-4.6849,-4.6965,-4.6899,-4.6996,-4.7026,-4.6915,-4.7037,-4.7054,-4.7092,-4.7116,-4.7043,-4.7185,-4.7192,-4.735,-4.7415,-4.7439,-4.7471,-4.7395,-4.7681,-4.7708,-4.7734,-4.7824,-4.786,-4.7428,-4.7427,-4.7426,-4.7425,0,-4.7144,-4.7226,-4.7321,-4.7358,-4.74,-4.7509,-4.746,-4.751,-4.746,-4.7439,-4.7565,-4.7569,-4.7627,-4.7661,-4.7614,-4.7814,-4.7774,-4.7693,-4.7564,-4.7786,-4.7869,-4.7903,-4.7444,-4.744,-4.7437,-4.7434,0,0,-4.7514,-4.7513,-4.7549,-4.7565,-4.7577,-4.764,-4.7744,-4.78,-4.7844,-4.7874,-4.7961,-4.8061,-4.7986,-4.8014,-4.7968,-4.805,-4.8261,-4.7958,-4.7957,-4.8014,-4.8481,-4.8542,-4.8583,-4.8212,-4.8218,-4.8223,-4.848,0,-4.7767,-4.7944,-4.7887,-4.8067,-4.8142,-4.8039,-4.813,-4.8148,-4.8131,-4.8193,-4.8175,-4.8247,-4.8142,-4.8159,-4.8235,-4.8219,-4.8354,-4.82,-4.8293,-4.8297,-4.829,-4.8627,-4.8691,-4.8933,-4.8512,-4.8517,-4.8521,0,-4.8085,-4.8127,-4.8314,-4.8313,-4.8343,-4.8426,-4.8472,-4.8533,-4.8552,-4.8534,-4.8566,-4.8503,-4.8606,-4.8479,-4.8621,-4.8517,-4.8552,-4.855,-4.8558,-4.8565,-4.8422,-4.8642,-4.9008,-4.9045,-4.8572,-4.8568,-4.8564,0,-4.8336,-4.8439,-4.8564,-4.8581,-4.8583,-4.8644,-4.8648,-4.866,-4.8697,-4.8738,-4.8762,-4.8816,-4.8845,-4.8889,-4.8843,-4.8754,-4.8992,-4.886,-4.8981,-4.8983,-4.9036,-4.9033,-4.9413,-4.9059,-4.9059,-4.9058,-4.9057,0,-4.8625,-4.8743,-4.8676,-4.8754,-4.8884,-4.8819,-4.895,-4.8942,-4.8954,-4.9028,-4.8942,-4.9014,-4.8948,-4.9015,-4.898,-4.9103,-4.9118,-4.9107,-4.9096,-4.9114,-4.9116,-4.9136,-4.9118,-4.9067,-4.9065,-4.9064,-4.9062,0,-4.8927,-4.8887,-4.9016,-4.9008,-4.9009,-4.9105,-4.9098,-4.917,-4.9147,-4.9242,-4.9261,-4.9226,-4.93,-4.9258,-4.9334,-4.931,-4.9471,-4.9437,-4.9464,-4.9455,-4.9578,-4.9568,-4.9984,-5.0036,-4.965,-4.9653,-4.9656,0,-4.9113,-4.9202,-4.9203,-4.9246,-4.9256,-4.9327,-4.9364,-4.9304,-4.9346,-4.9375,-4.9443,-4.951,-4.9559,-4.9683,-4.9664,-4.9723,-4.969,-4.9832,-4.9698,-4.9714,-4.9692,-4.9687,-4.9696,-4.9859,-4.9863,-4.9867,-4.987,0,-4.9448,-4.9424,-4.948,-4.9531,-4.9578,-4.9615,-4.9645,-4.9685,-4.9625,-4.9678,-4.9752,-4.9791,-4.9868,-4.9936,-4.9985,-4.999,-4.9922,-4.9912,-4.9943,-4.9963,-4.9975,-4.997,-4.9538,-4.9903,-4.99,-4.9897,-4.9896,-4.9894,-4.9698,-4.9772,-4.9784,-4.985,-4.9866,-4.9896,-4.9963,-4.9948,-5.0008,-5.0066,-5.0027,-5.0115,-5.0132,-5.0191,-5.0206,-5.0274,-5.0217,-5.0262,-5.0274,-5.0286,-5.0303,-4.9965,-5.0283,-5.0282,-5.0281,-5.0281,-5.028,0,-5.0028,-5.0031,-5.0093,-5.0137,-5.0189,-5.0118,-5.0148,-5.0197,-5.0275,-5.0296,-5.0347,-5.0432,-5.0497,-5.0485,-5.0544,-5.0601,-5.0571,-5.0619,-5.0614,-5.0616,-5.035,-5.0317,-5.0642,-5.0642,-5.0642,-5.0642,-5.0642,-5.0642,-5.0206,-5.0328,-5.0306,-5.0435,-5.0436,-5.0521,-5.0544,-5.0572,-5.0588,-5.0687,-5.074,-5.0731,-5.0739,-5.0798,-5.0855,-5.085,-5.0876,-5.0935,-5.0919,-5.0671,-5.0635,-5.0601,-5.0569,-5.0942,-5.0942,-5.1179,-5.1181,-5.1182]},{"header":{"parameterUnit":"m.s-1","parameterCategory":1,"la1":30.2991,"la2":30.254,"lo1":-89.0895,"lo2":-89.0444,"dy":0.0017,"dx":0.0017,"nx":28,"ny":28,"refTime":"2025-12-01T03:00:00:Z","depth":0,"parameterNumber":3,"parameterNumberName":"V-component_of_WINDS"},"data":[0,0,0,0,0,0,0,0,0,0,0,0,0,0,0,0,0,0,0,0,0,0,0,0,0,0,0,0,0,0,0,0,0,0,0,0,0,0,0,0,0,0,0,0,0,0,0,0,0,0,0,0,0,0,0,0,0,0,-2.0396,-2.0396,0,-2.0403,-2.0403,-2.0403,-2.0373,-2.0372,-2.0371,-2.037,-2.0377,-2.0378,-2.0379,0,0,0,0,0,0,0,0,0,0,0,0,0,-2.0357,-2.0358,-2.0396,-2.0396,-2.0396,-2.0403,-2.0403,-2.0403,-2.0373,-2.0372,-2.0371,-2.037,-2.0377,-2.0378,-2.0379,0,0,0,0,0,0,0,0,0,0,0,0,0,-2.037,-2.0358,-2.0396,-2.0382,-2.0381,-2.0403,-2.0403,-2.0403,-2.0373,-2.0372,-2.0371,-2.0369,-2.0376,-2.0378,-2.0379,-2.0414,0,0,-2.0384,-2.0384,0,0,0,0,0,0,0,0,-2.0369,-2.0371,-2.0384,-2.0383,-2.0382,-2.0386,-2.0391,-2.0407,-2.0374,-2.0376,-2.037,-2.0369,-2.0381,-2.0382,-2.0386,-2.0415,-2.0415,-2.0384,-2.0385,-2.0385,-2.0386,0,0,0,0,0,0,0,-2.0368,-2.0371,-2.0399,-2.0385,-2.0383,-2.0375,-2.0376,-2.0394,-2.0386,-2.0376,-2.0374,-2.0375,-2.038,-2.0385,-2.0386,-2.0415,-2.0384,-2.0385,-2.0386,-2.0387,-2.0471,-2.0473,0,0,0,0,0,0,-2.0369,-2.037,-2.0399,-2.0399,-2.0372,-2.0377,-2.0378,-2.0386,-2.0386,-2.0384,-2.0376,-2.0373,-2.0383,-2.0384,-2.0386,-2.0426,-2.0385,-2.0387,-2.0388,-2.047,-2.0472,-2.0473,0,0,0,0,0,0,-2.0369,-2.0372,-2.0398,-2.0384,-2.0387,-2.0379,-2.0389,-2.0387,-2.0391,-2.0386,-2.0384,-2.0382,-2.0382,-2.0384,-2.0407,-2.0426,-2.0387,-2.0389,-2.0468,-2.047,-2.0472,-2.0508,0,0,0,0,0,0,-2.0368,-2.0372,-2.0386,-2.0385,-2.0388,-2.042,-2.039,-2.0388,-2.0394,-2.0391,-2.0391,-2.039,-2.0381,-2.0405,-2.0409,-2.0427,-2.039,-2.0467,-2.0469,-2.0472,-2.0505,-2.0511,-2.0516,0,0,0,0,0,-2.0367,-2.0396,-2.0387,-2.039,-2.0405,-2.0421,-2.0423,-2.0412,-2.0395,-2.0409,-2.0405,-2.039,-2.0423,-2.0408,-2.0411,-2.0431,-2.0465,-2.0469,-2.0471,-2.0502,-2.051,-2.0516,0,0,0,0,0,0,-2.04,-2.0396,-2.0385,-2.0416,-2.0419,-2.0416,-2.0433,-2.042,-2.0428,-2.0425,-2.0411,-2.0411,-2.0436,-2.0436,-2.0419,-2.0464,-2.0441,-2.0445,-2.0464,-2.0471,-2.0476,-2.0476,-2.0391,0,0,0,0,0,-2.0411,-2.0425,-2.042,-2.0447,-2.0449,-2.0441,-2.0447,-2.0438,-2.0441,-2.0443,-2.0441,-2.0444,-2.0455,-2.0463,-2.0473,-2.0505,-2.0504,-2.052,-2.0525,-2.053,-2.0533,-2.0549,-2.0556,-2.0483,-2.0483,-2.0483,0,0,-2.0434,-2.0433,-2.0443,-2.0454,-2.0455,-2.0469,-2.0442,-2.0459,-2.0469,-2.0445,-2.0467,-2.0465,-2.0468,-2.0495,-2.0507,-2.0496,-2.0553,-2.0534,-2.0537,-2.0538,-2.0553,-2.056,-2.0566,-2.0485,-2.0485,-2.0485,0,0,-2.0483,-2.0484,-2.0506,-2.0507,-2.051,-2.0504,-2.0509,-2.0508,-2.0506,-2.0527,-2.0509,-2.0521,-2.0541,-2.0543,-2.0547,-2.0594,-2.058,-2.0598,-2.0627,-2.0642,-2.0648,-2.0653,-2.0669,-2.0675,-2.0601,-2.0602,-2.0602,0,-2.0511,-2.0532,-2.0519,-2.0536,-2.0541,-2.0519,-2.0541,-2.0543,-2.0549,-2.0553,-2.054,-2.0563,-2.0563,-2.059,-2.0602,-2.0606,-2.0611,-2.0598,-2.0648,-2.0653,-2.0657,-2.0673,-2.0679,-2.0604,-2.0603,-2.0603,-2.0603,0,-2.0565,-2.058,-2.0597,-2.0602,-2.0609,-2.0629,-2.0618,-2.0627,-2.0617,-2.0612,-2.0633,-2.0633,-2.0642,-2.0647,-2.0638,-2.0673,-2.0665,-2.065,-2.0627,-2.0666,-2.0681,-2.0687,-2.0607,-2.0606,-2.0605,-2.0605,0,0,-2.0637,-2.0633,-2.064,-2.0641,-2.0642,-2.0652,-2.067,-2.0679,-2.0686,-2.069,-2.0704,-2.0721,-2.0706,-2.0711,-2.0701,-2.0715,-2.0752,-2.0698,-2.0698,-2.0708,-2.0789,-2.08,-2.0807,-2.0742,-2.0743,-2.0744,-2.0788,0,-2.0684,-2.0714,-2.0702,-2.0733,-2.0746,-2.0725,-2.074,-2.0742,-2.0738,-2.0747,-2.0742,-2.0754,-2.0734,-2.0737,-2.0749,-2.0745,-2.0768,-2.0741,-2.0755,-2.0756,-2.0755,-2.0814,-2.0826,-2.0868,-2.0794,-2.0795,-2.0795,0,-2.0743,-2.0749,-2.0781,-2.0778,-2.0782,-2.0797,-2.0802,-2.0812,-2.0813,-2.0809,-2.0813,-2.08,-2.0817,-2.0794,-2.0816,-2.0798,-2.0803,-2.0802,-2.0803,-2.0804,-2.0778,-2.0817,-2.0881,-2.0887,-2.0804,-2.0803,-2.0803,0,-2.0791,-2.0807,-2.0828,-2.083,-2.0827,-2.0837,-2.0836,-2.0835,-2.0841,-2.0846,-2.0849,-2.0856,-2.086,-2.0866,-2.0855,-2.0839,-2.0879,-2.0855,-2.0875,-2.0876,-2.0885,-2.0884,-2.0951,-2.0888,-2.0888,-2.0888,-2.0888,0,-2.0845,-2.0865,-2.0849,-2.0862,-2.0884,-2.0869,-2.0891,-2.0888,-2.0888,-2.0899,-2.0882,-2.0893,-2.0878,-2.0888,-2.088,-2.0899,-2.0901,-2.0898,-2.0895,-2.0899,-2.09,-2.0902,-2.0899,-2.089,-2.089,-2.0889,-2.0889,0,-2.0902,-2.0892,-2.0914,-2.0908,-2.0907,-2.0923,-2.0919,-2.093,-2.0924,-2.0939,-2.0941,-2.0932,-2.0942,-2.0932,-2.0942,-2.0936,-2.0962,-2.0955,-2.0961,-2.096,-2.098,-2.0978,-2.1051,-2.1059,-2.0992,-2.0992,-2.0993,0,-2.0937,-2.0952,-2.0948,-2.0954,-2.0954,-2.0965,-2.0969,-2.0955,-2.0961,-2.0963,-2.0974,-2.0982,-2.0989,-2.1006,-2.1,-2.1007,-2.1,-2.1025,-2.1001,-2.1005,-2.1,-2.0999,-2.1,-2.103,-2.1031,-2.1032,-2.1032,0,-2.1,-2.0994,-2.1001,-2.1007,-2.1013,-2.1017,-2.102,-2.1026,-2.1011,-2.1019,-2.1029,-2.1033,-2.1043,-2.1051,-2.1057,-2.1055,-2.1041,-2.104,-2.1045,-2.1049,-2.1052,-2.105,-2.0974,-2.1038,-2.1037,-2.1037,-2.1037,-2.1037,-2.1047,-2.1059,-2.1057,-2.1066,-2.1066,-2.1068,-2.1078,-2.1073,-2.1081,-2.1087,-2.1078,-2.109,-2.109,-2.1095,-2.1095,-2.1104,-2.1094,-2.1101,-2.1103,-2.1105,-2.1108,-2.105,-2.1105,-2.1105,-2.1105,-2.1105,-2.1105,0,-2.1108,-2.1106,-2.1114,-2.1117,-2.1124,-2.1109,-2.1111,-2.1117,-2.1128,-2.1129,-2.1135,-2.1146,-2.1153,-2.1147,-2.1154,-2.1162,-2.1156,-2.1165,-2.1164,-2.1164,-2.1117,-2.1112,-2.117,-2.117,-2.117,-2.117,-2.117,-2.1169,-2.1141,-2.116,-2.1153,-2.1171,-2.1169,-2.118,-2.1182,-2.1184,-2.1184,-2.1197,-2.1203,-2.1199,-2.1196,-2.1202,-2.1209,-2.1207,-2.121,-2.1221,-2.1216,-2.1173,-2.1167,-2.1161,-2.1156,-2.1221,-2.1222,-2.1262,-2.1262,-2.1262]}]]